Погода в Каримнагаре

Индия     18°26′31″N   79°08′35″E
темп.,
°C
ветер,
м/с
пор.,
м/с
влажн.,
%
обл.,
%
осадки,
мм/ч
давл.,
гПа
погр.,
м
25 февраля, чт
чт2523:30+24зсз12190 0.0 101324
02:30+22юз11220 0.0 101123
05:30+20ююз12240 0.0 101123
08:30+26юз11180 0.0 1014153
11:30+34ю11120 0.0 10131096
14:30+36ссв23104 0.0 10092578
17:30+34св23112 0.0 100874
20:30+27ю22150 0.0 101024
26 февраля, пт
пт2623:30+24сз22180 0.0 101024
02:30+24юз12180 0.0 100823
05:30+22юз34210 0.0 100937
08:30+27сз12170 0.0 1012183
11:30+34сз33120 0.0 10111261
14:30+38сз13100 0.0 10063453
17:30+35зюз12120 0.0 100652
20:30+28ююв12170 0.0 100924
27 февраля, сб
сб2723:30+27зюз12180 0.0 100924
02:30+25зюз23210 0.0 100728
05:30+22сз22250 0.0 100723
08:30+28с23190 0.0 1011261
11:30+35св34120 0.0 10101697
14:30+38ссз24100 0.0 10064261
17:30+36ссв12122 0.0 1005144
20:30+28с11160 0.0 100824
28 февраля, вс
вс2823:30+26з23180 0.0 100824
02:30+25сз23180 0.0 100724
05:30+23зюз22220 0.0 100723
08:30+28сз11170 0.0 1011185
11:30+36св12100 0.0 10101032
14:30+39с2380 0.0 10063931
17:30+36ссв22110 0.0 100586
20:30+29ю12150 0.0 100824
1 марта, пн
пн123:30+27з12160 0.0 100924
02:30+24юз33210 0.0 100834
05:30+22ююв23300 0.0 100925
08:30+27ю23300 0.0 1012245
11:30+35ююз33140 0.0 10121101
14:30+39ю11100 0.0 10083591
17:30+37ююв23110 0.0 1007145
20:30+29в23170 0.0 101024